This is the latest recevied weather packets stored in our database for station/object KA7EII-13. If no packets are shown the sender has not sent any weather packets the latest 10 day(s).
| Time | Temp. | Humidity | Pressure | Rain* | Wind** | Luminosity | Snow |
|---|---|---|---|---|---|---|---|
| 1777465214 | 0.56° C | 83% | 1109.4 hPa | 0 mm | - | 0 W/m² | - |
| 1777464909 | 0.56° C | 82% | 1109.2 hPa | 0 mm | - | 0 W/m² | - |
| 1777464604 | 0.56° C | 82% | 1109.2 hPa | 0 mm | - | 0 W/m² | - |
| 1777464301 | 1.11° C | 80% | 1109.1 hPa | 0 mm | - | 0 W/m² | - |
| 1777463996 | 0.56° C | 81% | 1109.2 hPa | 0 mm | - | 0 W/m² | - |
| 1777463691 | 0° C | 84% | 1109 hPa | 0 mm | - | 0 W/m² | - |
| 1777463386 | 0° C | 84% | 1108.9 hPa | 0 mm | - | 0 W/m² | - |
| 1777463083 | 0.56° C | 84% | 1109 hPa | 0 mm | - | 0 W/m² | - |
| 1777462778 | 0° C | 84% | 1109 hPa | 0 mm | - | 0 W/m² | - |
| 1777462473 | 0° C | 85% | 1109 hPa | 0 mm | - | 0 W/m² | - |
| 1777462171 | 0° C | 87% | 1108.9 hPa | 0 mm | - | 0 W/m² | - |
| 1777461862 | 0° C | 88% | 1109 hPa | 0 mm | - | 0 W/m² | - |
| 1777461559 | 0° C | 86% | 1109 hPa | 0 mm | - | 0 W/m² | - |
| 1777461254 | 0° C | 84% | 1109 hPa | 0 mm | - | 0 W/m² | - |
| 1777460949 | 0° C | 83% | 1108.9 hPa | 0 mm | - | 0 W/m² | - |
| 1777460645 | 0° C | 82% | 1109 hPa | 0 mm | - | 0 W/m² | - |
| 1777460341 | 0° C | 82% | 1108.9 hPa | 0 mm | - | 0 W/m² | - |
| 1777460037 | 0° C | 82% | 1108.9 hPa | 0 mm | - | 0 W/m² | - |
| 1777459734 | 0° C | 82% | 1109.2 hPa | 0 mm | - | 0 W/m² | - |
| 1777459431 | 0° C | 82% | 1108.7 hPa | 0 mm | - | 0 W/m² | - |
| 1777459129 | 0° C | 81% | 1108.9 hPa | 0 mm | - | 0 W/m² | - |
| 1777458825 | 0° C | 80% | 1108.9 hPa | 0 mm | - | 0 W/m² | - |
| 1777458522 | 0.56° C | 79% | 1109 hPa | 0 mm | - | 0 W/m² | - |
| 1777458219 | 0.56° C | 78% | 1109 hPa | 0 mm | - | 0 W/m² | - |
| 1777457914 | 0.56° C | 78% | 1109 hPa | 0 mm | - | 0 W/m² | - |
* Rain latest hour (hover to see other rain measurements)
** Current wind speed in m/s (hover to see current wind gust speed)